Regional Weather Roundup
Issued by NWS

Home | Current Version | Previous Version | Graphics & Text | Print | Product List | Glossary On
Versions: 1 2 3 4 5 6 7 8 9 10 11 12 13 14 15 16 17 18 19 20 21 22 23 24 25 26 27
000
ASUS45 KCYS 241510
RWRWY

WYOMING REGIONAL WEATHER ROUNDUP
NATIONAL WEATHER SERVICE CHEYENNE WY
900 AM MDT SAT JUN 24 2017

NOTE:  "FAIR" INDICATES FEW OR NO CLOUDS BELOW 12,000 FEET
WITH NO SIGNIFICANT WEATHER AND/OR OBSTRUCTIONS TO VISIBILITY.

WYZ001-241600-
YELLOWSTONE NATIONAL PARK

CITY           SKY/WX    TMP DP  RH WIND       PRES   REMARKS
LK YELLOWSTONE   N/A     46  32  58 CALM      30.46S
W YELLOWSTONE  NOT AVBL

$$
WYZ002>013-054>058-071-098>099-241600-
NORTHERN WYOMING

CITY           SKY/WX    TMP DP  RH WIND       PRES   REMARKS
JACKSON        SUNNY     52  36  54 CALM      30.39S
CODY           FAIR      61  34  36 VRB3      30.38S
GREYBULL       FAIR      62  33  33 CALM      30.32S
WORLAND        FAIR      59  34  39 CALM      30.34S
SHERIDAN       PTSUNNY   64  38  38 NW9       30.34R
BUFFALO        PTSUNNY   61  37  41 N13       30.37R
GILLETTE       CLOUDY    55  38  52 W7        30.34R
NEWCASTLE      FAIR      52  32  46 N9        30.34R

$$
WYZ014>020-022>026-101>103-241600-
CENTRAL WYOMING

CITY           SKY/WX    TMP DP  RH WIND       PRES   REMARKS
BIG PINEY      FAIR      52  32  46 SW8       30.42S
PINEDALE       FAIR      52  32  46 CALM      30.43S
DUBOIS         FAIR      50  30  46 E3        30.41S
LANDER         FAIR      57  37  47 N6        30.37S
RIVERTON       FAIR      57  33  40 VRB3      30.38R
CASPER         FAIR      59  32  36 N8        30.37R
DOUGLAS        FAIR      60  34  37 NW6       30.35R

$$
WYZ021-027>030-104>119-241600-
SOUTHERN WYOMING

CITY           SKY/WX    TMP DP  RH WIND       PRES   REMARKS
EVANSTON       FAIR      56  35  45 NE6       30.39S
KEMMERER         N/A     55  32  41 E5        30.42R
FORT BRIDGER   FAIR      56  32  40 E3        30.43R
ROCK SPRINGS   FAIR      56  30  37 NE3       30.40S
DIXON          FAIR      54  34  45 CALM      30.40R
RAWLINS        FAIR      56  29  35 NE9       30.39R
SARATOGA       FAIR      52  34  50 N10       30.40R
LARAMIE        FAIR      54  32  43 SE10      30.38R
CHEYENNE       CLOUDY    56  32  40 VRB3      30.37R
TORRINGTON     CLOUDY    58  36  43 CALM      30.31R
PINE BLUFFS    PTSUNNY   61  36  39 E3        30.34R

$$




USA.gov is the U.S. government's official web portal to all federal, state and local government web resources and services.